Hourly Data Report for February 24, 2002

SHERBROOKE A
QUEBEC

45°26'00.000" N
71°41'00.000" W
241.40 m
7028124
71610
YSC

Download Data

Hourly Data (February 2002)
Hourly Data Report for February 24, 2002
TIME
LST
Temp Definition
°C
Dew Point Definition
°C
Rel Hum Definition
%
Precip. Amount Definition
mm

Wind Dir Definition
10's deg

Wind Spd Definition
km/h
Visibility Definition
km
Stn Press Definition
kPa
Hmdx Definition


Wind Chill Definition


Weather Definition


00:00 -15.1 -16.2 91   9 6 15.0 99.34   -19  
01:00 -14.4 -15.4 92   8 4 15.0 99.38   -17  
02:00 -15.6 -16.6 92   10 4 15.0 99.41   -19  
03:00 -16.6 -17.7 91   8 6 15.0 99.42   -21  
04:00 -16.2 -17.3 91     0 15.0 99.44      
05:00 -16.7 -17.8 91   9 4 15.0 99.45   -20  
06:00 -17.1 -18.5 89   10 6 15.0 99.47   -22  
07:00 -16.5 -17.6 91   9 7 15.0 99.52   -22  
08:00 -13.3 -14.5 91   7 4 24.1 99.59   -16 Clear
09:00 -10.5 -13.2 81   12 7 24.1 99.59   -15 Mainly Clear
10:00 -6.7 -11.2 70     0 24.1 99.54     Mostly Cloudy
11:00 -3.7 -10.7 58   10 4 24.1 99.49   -5 Mostly Cloudy
12:00 -2.9 -10.0 58     0 24.1 99.46     Mostly Cloudy
13:00 -2.5 -9.5 59   30 6 24.1 99.44   -5 Mostly Cloudy
14:00 -0.9 -10.2 49     0 24.1 99.39     Mostly Cloudy
15:00 -0.4 -9.2 51   7 6 24.1 99.29   -2 Cloudy
16:00 -0.2 -8.5 54   11 7 24.1 99.23   -3 Cloudy
17:00 0.0 -8.2 54   3 4 24.1 99.23   -1 Cloudy
18:00 -0.7 -5.3 71   9 4 15.0 99.18   -2  
19:00 -0.6 -7.4 60   6 6 15.0 99.21   -3  
20:00 -0.5 -7.3 60   11 6 15.0 99.21   -3  
21:00 -0.7 -6.4 65   9 4 15.0 99.20   -2  
22:00 -0.7 -5.7 69   2 4 15.0 99.17   -2  
23:00 -0.6 -6.5 64     0 15.0 99.19      

Notes on Data Quality.

Legend

  • E = Estimated
  • M = Missing
  • NA = Not Available*
  • [empty] = Indicates an unobserved value
Date modified: